DateTimeUTC,F1_A11,F1_S11,BsB_S11,BsG_S11,BsR_S11,BbsB_S11,BbsG_S11,BbsR_S11,BaB_A11,BaG_A11,BaR_A11,Tu_S11,T_S11,Uu_S11,U_S11,P_S11,T1_A11
2021-08-15T13:00:00Z,00000200,20000000,,,,,,,-000.42,-000.52,0000.32,19.5,25.8,14.6,09.9,0674.1,30.9
2021-08-15T13:01:00Z,00000200,20000000,,,,,,,0000.18,0000.31,-000.33,19.5,25.8,14.4,09.8,0674.1,31.0
2021-08-15T13:02:00Z,00000200,20000000,,,,,,,-000.11,-000.02,0000.02,19.5,25.8,14.4,09.8,0674.1,31.0
2021-08-15T13:03:00Z,00000200,60000000,,,,,,,-000.06,-000.13,-000.01,19.5,25.8,14.4,09.8,0674.1,31.0
2021-08-15T13:04:00Z,00000200,40000000,0000.54,0000.57,0000.71,-000.13,0000.29,0000.37,0000.37,0000.44,0000.11,19.6,25.7,14.4,10.0,0675.0,31.0
2021-08-15T13:05:00Z,00000200,00000000,0000.86,0000.60,0000.49,-000.33,0000.27,0000.46,0000.20,-000.28,0000.27,19.7,25.6,14.3,10.0,0675.1,31.0
2021-08-15T13:06:00Z,00000200,00000000,0001.07,0000.43,0000.58,0000.42,0000.17,0000.13,0000.32,0000.28,0000.23,19.7,25.6,14.5,10.1,0675.1,31.0
2021-08-15T13:07:00Z,00000200,00000000,0001.17,0000.80,0000.58,-000.04,0000.28,0000.51,0000.17,0000.53,-000.11,19.7,25.6,14.5,10.1,0675.1,31.0
2021-08-15T13:08:00Z,00000200,00000000,0000.84,0000.49,0000.85,0000.68,-000.07,0000.41,-000.23,-000.32,0000.06,19.7,25.6,14.3,10.0,0675.1,31.0
2021-08-15T13:09:00Z,00000200,00000000,0001.56,0000.92,0000.31,-000.30,0000.13,0000.07,0000.38,0000.11,0000.22,19.8,25.6,14.3,10.0,0675.1,31.0
2021-08-15T13:10:00Z,00000200,00000000,0001.60,0000.77,0000.63,-000.67,0000.12,0000.04,0000.07,0000.32,0000.18,19.8,25.6,14.4,10.1,0675.1,30.9
2021-08-15T13:11:00Z,00000200,00000000,0001.84,0000.87,0000.77,0000.19,0000.08,0000.22,0000.17,0000.36,0000.01,19.8,25.6,14.2,10.0,0675.0,31.0
2021-08-15T13:12:00Z,00000200,00000000,0001.15,0000.76,0000.69,0000.36,0000.04,0000.56,0000.06,-000.12,0000.24,19.8,25.6,14.2,10.0,0675.1,31.0
2021-08-15T13:13:00Z,00000200,00000000,0002.35,0000.81,0000.88,0000.18,0000.41,0000.35,0000.59,0000.48,0000.12,19.8,25.6,14.3,10.0,0675.1,31.0
2021-08-15T13:14:00Z,00000200,00000000,0001.27,0000.64,0000.95,0000.49,0000.08,0000.12,-000.01,0000.01,-000.06,19.8,25.6,14.3,10.0,0675.1,31.0
2021-08-15T13:15:00Z,00000200,00000000,0000.85,0000.94,0000.36,-000.57,0000.08,0000.07,0000.29,0000.65,0000.69,19.8,25.6,14.4,10.1,0675.1,31.0
2021-08-15T13:16:00Z,00000200,00000000,0001.53,0000.59,0000.39,0000.13,0000.35,-000.16,0000.23,0000.24,0000.03,19.8,25.6,14.5,10.1,0675.1,31.0
2021-08-15T13:17:00Z,00000200,00000000,0002.53,0001.07,0000.78,-000.03,0000.11,0000.08,0000.09,-000.34,-000.13,19.8,25.6,14.5,10.1,0675.1,31.0
2021-08-15T13:18:00Z,00000200,00000000,0001.43,0001.23,0000.88,0000.37,0000.40,0000.07,0000.78,0000.31,0000.90,19.8,25.6,14.4,10.1,0675.1,31.0
2021-08-15T13:19:00Z,00000200,00000000,0001.07,0000.87,0000.61,0000.37,0000.20,0000.24,0000.59,0000.98,0000.48,19.8,25.6,14.6,10.2,0675.1,31.0
2021-08-15T13:20:00Z,00000200,00000000,0001.53,0000.39,0000.64,0000.47,0000.24,0000.20,-000.42,-000.29,-000.39,19.8,25.7,14.6,10.2,0675.1,31.0
2021-08-15T13:21:00Z,00000200,00000000,0001.37,0000.86,0000.66,0000.91,0000.03,0000.22,0000.21,0000.21,0000.01,19.8,25.6,14.3,10.1,0675.1,31.0
2021-08-15T13:22:00Z,00000200,00000000,0000.85,0000.92,0000.69,0000.48,0000.49,0000.33,0000.20,0000.03,0000.04,19.8,25.6,14.4,10.1,0675.1,31.0
2021-08-15T13:23:00Z,00000200,00000000,0001.69,0001.16,0001.00,0000.05,0000.19,0000.54,-000.06,-000.03,0000.44,19.8,25.7,14.2,10.0,0675.1,31.0
2021-08-15T13:24:00Z,00000200,00000000,0001.81,0001.61,0000.87,0000.84,0000.02,0000.32,0000.10,0000.18,-000.47,19.8,25.7,13.9,09.8,0675.1,31.0
2021-08-15T13:25:00Z,00000200,00000000,0002.39,0002.09,0001.39,0000.04,0000.56,0000.17,0000.35,0000.28,0000.56,19.8,25.7,13.4,09.5,0675.1,31.0
2021-08-15T13:26:00Z,00000200,00000000,0001.84,0001.74,0001.57,0000.32,0000.42,0000.21,0001.02,0000.63,0000.69,19.8,25.7,13.7,09.6,0675.1,31.0
2021-08-15T13:27:00Z,00000200,00000000,0002.50,0001.71,0000.95,0000.25,0000.47,0000.20,0000.47,0000.70,0000.17,19.8,25.7,13.9,09.8,0675.2,31.0
2021-08-15T13:28:00Z,00000200,00000000,0002.52,0001.61,0001.15,0000.10,0000.05,0000.18,0000.19,0000.73,0000.90,19.9,25.7,13.9,09.8,0675.2,31.0
2021-08-15T13:29:00Z,00000200,00000000,0002.04,0001.85,0001.18,0000.29,0000.53,0000.16,0000.41,-000.03,0000.23,19.9,25.7,13.9,09.8,0675.1,31.0
2021-08-15T13:30:00Z,00000200,00000000,0002.21,0001.19,0001.24,0000.39,0000.32,0000.54,0000.94,0000.83,0000.24,19.9,25.7,13.9,09.8,0675.1,31.0
2021-08-15T13:31:00Z,00000200,00000000,0002.54,0001.51,0001.16,0000.14,0000.52,0000.34,0000.12,0000.32,0000.23,19.9,25.7,14.0,09.8,0675.1,31.0
2021-08-15T13:32:00Z,00000200,00000000,0002.13,0001.78,0001.38,0000.05,0000.32,0000.22,0000.68,0000.38,0000.25,19.8,25.7,13.9,09.8,0675.1,31.0
2021-08-15T13:33:00Z,00000200,00000000,0001.36,0001.10,0000.96,-000.12,0000.17,0000.08,0000.41,0000.24,0000.73,19.8,25.7,14.0,09.8,0675.1,31.0
2021-08-15T13:34:00Z,00000200,00000000,0002.64,0001.48,0001.34,-000.24,0000.02,0000.39,0000.54,0000.59,0000.25,19.8,25.7,14.0,09.8,0675.1,31.0
2021-08-15T13:35:00Z,00000200,00000000,0001.46,0001.80,0001.40,-000.20,0000.62,0000.40,0000.31,0000.25,0000.34,19.9,25.7,14.0,09.8,0675.1,31.0
2021-08-15T13:36:00Z,00000200,00000000,0002.60,0001.42,0001.30,0000.40,0000.38,0000.65,0000.42,0000.42,0000.23,19.9,25.7,13.9,09.8,0675.1,31.0
2021-08-15T13:37:00Z,00000200,00000000,0001.81,0001.43,0001.07,0000.54,0000.46,-000.07,0000.56,0000.41,0000.29,19.8,25.7,13.9,09.7,0675.1,31.0
2021-08-15T13:38:00Z,00000200,00000000,0002.02,0001.40,0001.12,0000.30,0000.30,0000.10,-000.02,0000.58,0000.28,19.9,25.7,13.9,09.7,0675.1,31.0
2021-08-15T13:39:00Z,00000200,00000000,0002.14,0001.54,0001.42,0000.67,0000.52,0000.30,0000.45,0000.14,0000.61,19.9,25.7,13.9,09.8,0675.1,31.0
2021-08-15T13:40:00Z,00000200,00000000,0002.40,0001.36,0001.23,0000.52,0000.43,-000.07,0000.82,0000.41,-000.10,19.9,25.7,13.9,09.7,0675.1,31.0
2021-08-15T13:41:00Z,00000200,00000000,0002.00,0001.40,0000.88,0000.18,0000.28,0000.28,0000.19,0000.41,0000.21,19.9,25.7,13.9,09.8,0675.1,31.0
2021-08-15T13:42:00Z,00000200,00000000,0001.89,0001.50,0000.85,0000.71,0000.24,0000.06,0000.46,0000.30,0000.41,19.9,25.7,13.9,09.8,0675.1,31.0
2021-08-15T13:43:00Z,00000200,00000000,0002.59,0001.26,0001.02,0000.24,0000.35,0000.32,0000.61,0000.58,0000.64,19.9,25.7,14.1,09.9,0675.1,31.0
2021-08-15T13:44:00Z,00000200,00000000,0001.77,0001.19,0000.78,0000.23,0000.48,0000.58,0000.20,0000.17,0000.22,19.9,25.7,14.0,09.8,0675.1,31.0
2021-08-15T13:45:00Z,00000200,00000000,0001.74,0000.93,0000.51,-000.40,0000.12,0000.34,0000.58,0000.26,0000.30,19.9,25.7,14.1,09.9,0675.1,31.0
2021-08-15T13:46:00Z,00000200,00000000,0001.62,0001.58,0000.61,0000.60,0000.30,0000.30,0000.07,0000.39,0000.44,19.9,25.7,14.2,09.9,0675.1,31.0
2021-08-15T13:47:00Z,00000200,00000000,0002.12,0001.03,0000.49,-000.22,0000.25,-000.01,0000.10,0000.21,-000.20,19.9,25.8,14.2,09.9,0675.1,31.0
2021-08-15T13:48:00Z,00000200,00000000,0001.66,0000.97,0000.94,-000.07,0000.42,0000.26,0000.29,0000.49,0000.38,19.9,25.7,14.1,09.9,0675.1,31.0
2021-08-15T13:49:00Z,00000200,00000000,0002.33,0000.84,0000.52,0000.17,0000.17,0000.22,0000.30,0000.06,0000.18,19.9,25.8,14.1,09.9,0675.1,31.0
2021-08-15T13:50:00Z,00000200,00000000,0000.92,0001.20,0000.88,-000.59,0000.52,0000.21,0000.58,0000.50,0000.01,19.9,25.7,14.2,09.9,0675.1,31.0
2021-08-15T13:51:00Z,00000200,00000000,0001.07,0000.91,0001.08,0000.44,0000.35,0000.23,0000.16,0000.37,0000.59,19.9,25.8,14.1,09.9,0675.1,31.0
2021-08-15T13:52:00Z,00000200,00000000,0001.48,0000.74,0000.98,0000.18,0000.46,0000.33,0000.37,0000.08,0000.45,19.9,25.8,14.2,09.9,0675.1,31.0
2021-08-15T13:53:00Z,00000200,00000000,0001.63,0001.24,0000.95,-000.07,0000.57,0000.36,0000.58,0000.50,0000.05,19.9,25.8,14.2,10.0,0675.1,31.0
2021-08-15T13:54:00Z,00000200,00000000,0001.40,0001.15,0001.18,0000.17,0000.06,0000.13,-000.27,0000.15,0000.05,19.9,25.8,14.1,09.9,0675.1,31.0
2021-08-15T13:55:00Z,00000200,00000000,0001.45,0000.94,0001.24,0000.55,0000.11,0000.43,0000.58,0000.33,0000.34,19.9,25.8,14.0,09.8,0675.1,31.0
2021-08-15T13:56:00Z,00000200,00000000,0002.30,0001.16,0001.06,0000.62,0000.29,0000.21,0000.08,0000.17,-000.02,19.9,25.8,14.0,09.8,0675.1,31.0
2021-08-15T13:57:00Z,00000200,40000000,,,,,,,0000.22,0000.11,0000.50,19.9,25.8,14.3,10.0,0675.1,31.0
2021-08-15T13:58:00Z,00000200,60000000,,,,,,,0000.05,0000.19,-000.06,19.7,25.8,14.2,09.8,0674.1,31.0
2021-08-15T13:59:00Z,00000200,20000000,,,,,,,-000.00,-000.32,-000.14,19.7,25.9,14.1,09.7,0674.1,31.0
